Simultaneous Nadir Overpasses (SNOs) Predictions

Prediction of SNOs between GOES-16 and NOAA-20 Satellite Orbit:

Table of predicted SNOs for the next 14.0 days since TLE Epoch: 6/10/2023
Index Date Time (GOES-16) GOES-16 Lat,Lon NOAA-20 Lat,Lon Distance(km) Time Diff (sec)
1 06/10/2023 18:39:59 0.02, -75.19 -0.74, -78.72 401.65 80
2 06/11/2023 18:23:55 0.02, -75.19 0.23, -74.18 114.92 80
3 06/13/2023 06:43:04 -0.03, -75.20 0.91, -79.46 485.25 80
4 06/14/2023 06:24:19 -0.03, -75.21 -0.07, -74.93 31.64 80
5 06/16/2023 18:27:33 0.03, -75.24 -0.09, -75.72 55.37 80
6 06/17/2023 18:11:30 0.03, -75.25 0.95, -71.20 461.92 80
7 06/19/2023 06:30:38 -0.04, -75.27 0.24, -76.47 137.21 80
8 06/20/2023 06:14:35 -0.03, -75.28 -0.81, -71.95 380.41 80
9 06/21/2023 18:33:52 0.04, -75.31 -0.38, -77.26 222.39 80
10 06/22/2023 18:17:47 0.04, -75.33 0.61, -72.73 295.82 80
